Starlink 11139

operational
NORAD ID: 60402 Int'l Des: 2024-141 Owner: SPXS Country: US Constellation: starlink
LEOCIRCULAR

Über Starlink 11139

Beschreibung wird geladen...

Live-Position

3D-Globus wird geladen...

Nächste Überflüge

Höhenverlauf

Altitude vs Time

uPlot chart will show altitude changes over time

Zweizeiliger Elementsatz

1 60402U 24141E 25304.54492337 -.00000923 00000-0 -27503-5 0 9993
2 60402 53.1586 2.5833 0001830 42.9693 317.1468 15.69699525 71463
Epoch: 31. Okt. 2025 • Age: 30 hours

Aktueller Status

Höhe 362.3 km
Geschwindigkeit 7.69 km/s
Subsatellitenpunkt -4.30°S, 145.11°W
Startdatum 10. Aug. 2024
Alter 1.2 years
Typ internet

Technische Details

Klassifizierung Payload
Masse 960.00 kg
Trockenmasse 910.00 kg
Gesamtmasse 960.00 kg
Länge 0.30 m
Durchmesser 4.10 m
Spannweite 29.00 m
Form Box + pan
Hersteller SPXS
Bus-Typ Starlink V2MD
Phasenstatus In Orbit
Besitzer/Staat SPXS/US

Große Konstellationen

Loading constellations...